Regional Weather Roundup
Issued by NWS

Home | Current Version | Previous Version | Text Only | Print | Product List | Glossary On
Versions: 1 2 3 4 5 6 7 8 9 10 11 12 13 14 15 16 17 18 19 20 21 22 23 24 25 26 27 28 29 30 31 32 33 34 35 36 37 38 39 40 41 42 43 44 45 46 47 48 49 50
266
ASUS43 KOAX 140402
RWRNE

WEATHER ROUNDUP FOR NEBRASKA
NATIONAL WEATHER SERVICE OMAHA NE
1000 PM CST WED DEC 13 2017

NOTES: SATELLITE DATA IS BEING USED TO AUGMENT CLOUD COVER ABOVE
       12000 FEET.
       "FAIR" INDICATES FEW OR NO CLOUDS BELOW 12,000 FEET WITH NO
       SIGNIFICANT WEATHER AND/OR OBSTRUCTIONS TO VISIBILITY.


NEZ001>004-019>022-054>056-140500-
NEBRASKA PANHANDLE

CITY           SKY/WX    TMP DP  RH WIND       PRES   REMARKS
SCOTTSBLUFF    CLOUDY    39  19  44 NW9       30.13R WCI  33
ALLIANCE       CLOUDY    35  22  58 N9        30.09R WCI  28
CHADRON        CLOUDY    32  21  64 SW8       30.11R WCI  25
GORDON         MOCLDY    35  24  65 NW9       30.07R WCI  28
KIMBALL        CLOUDY    36  17  46 N10       30.11R WCI  28
SIDNEY         CLOUDY    38  17  42 N17       30.09R WCI  28
$$

NEZ057>060-069>072-079>082-140500-
SOUTHWEST NEBRASKA

CITY           SKY/WX    TMP DP  RH WIND       PRES   REMARKS
NORTH PLATTE   CLOUDY    36  23  59 NW7       30.05R WCI  30
IMPERIAL       CLOUDY    37  20  50 N12       30.07R WCI  29
LEXINGTON      CLOUDY    36  24  61 NW7       30.03R WCI  30
MCCOOK         PTCLDY    36  22  56 N10       30.05R WCI  28
OGALLALA       CLOUDY    41  22  47 N8        30.08R
$$

NEZ005>010-023>029-035>040-094-140500-
NORTH CENTRAL NEBRASKA

CITY           SKY/WX    TMP DP  RH WIND       PRES   REMARKS
VALENTINE      CLOUDY    39  21  48 NW12      30.04R WCI  32
AINSWORTH      CLOUDY    32  27  81 N5        30.03R WCI  28
BROKEN BOW     PTCLDY    39  22  50 N15G22    30.01R WCI  31
O`NEILL        CLOUDY    33  27  77 NW12      30.01R WCI  25
ORD            PTCLDY    35  26  69 N13       30.01R WCI  26
THEDFORD       CLOUDY    39  22  51 NW15      30.04R WCI  30
$$

NEZ041-046>049-061>064-073>077-083>087-140500-
SOUTH CENTRAL NEBRASKA

CITY           SKY/WX    TMP DP  RH WIND       PRES   REMARKS
GRAND ISLAND   CLOUDY    30  25  81 N7        30.02R WCI  23
AURORA         CLOUDY    33  26  76 N10       30.01R WCI  24
HASTINGS       CLEAR     31  22  69 N10       30.00R WCI  22
HEBRON         CLOUDY    36  27  69 N7        30.00R WCI  30
HOLDREGE       PTCLDY    36  25  64 NW10      30.00S WCI  28
KEARNEY        CLOUDY    35  23  61 NW9       30.01R WCI  28
$$

NEZ011>018-030>034-042>045-140500-
NORTHEAST NEBRASKA

CITY           SKY/WX    TMP DP  RH WIND       PRES   REMARKS
NORFOLK        CLOUDY    36  26  67 N15       29.97R WCI  27
ALBION         MOCLDY    35  27  70 NW9       30.00R WCI  28
BLAIR          CLOUDY    39  27  62 N14       29.94R WCI  31
COLUMBUS       CLOUDY    37  26  64 N12       30.00R WCI  29
FREMONT        CLOUDY    38  26  60 NW15      29.98R WCI  30
TEKAMAH        CLOUDY    38  27  64 N16G23    29.96R WCI  29
WAYNE          CLOUDY    37  24  59 N16G23    29.97R WCI  27
$$

NEZ050>053-065>068-078-088>093-140500-
SOUTHEAST NEBRASKA

CITY           SKY/WX    TMP DP  RH WIND       PRES   REMARKS
LINCOLN        CLOUDY    38  27  64 NW7       30.00R WCI  33
OMAHA EPPLEY   CLOUDY    40  26  57 N13       29.95R WCI  32
BEATRICE       CLOUDY    27  24  86 NW6       29.98R WCI  21
FALLS CITY     MOCLDY    35  26  69 NW7       29.96R WCI  29
NEBRASKA CITY  CLOUDY    40  27  60 N12       29.96R WCI  32
PLATTSMOUTH    CLOUDY    39  27  62 N12G17    29.95R WCI  32
$$

NEZ044-045-051>053-067-140500-
OMAHA AREA

CITY           SKY/WX    TMP DP  RH WIND       PRES   REMARKS
OMAHA EPPLEY   CLOUDY    40  26  57 N13       29.95R WCI  32
BLAIR          CLOUDY    39  27  62 N14       29.94R WCI  31
FREMONT        CLOUDY    38  26  60 NW15      29.98R WCI  30
MILLARD        CLOUDY    41  27  57 NW8       29.96S
OFFUTT AFB     CLOUDY    40  26  56 N12       29.95R WCI  33
PLATTSMOUTH    CLOUDY    39  27  62 N12G17    29.95R WCI  32
WAHOO          CLOUDY    38  25  58 N13       29.97S WCI  31
$$




USA.gov is the U.S. government's official web portal to all federal, state and local government web resources and services.